"Pseudo-MPEC" for C24M9M2

Created 2020 Feb 16 9:07:07 UT using Find_Orb

Click here for an explanation of pseudo-MPECs

 
 Astrometry: 
     C24M9M2  C2020 02 14.29639 08 46 33.20 +13 55 48.6    ~2E7qx20.6 GVNEOCPG96
     C24M9M2  C2020 02 14.30195 08 46 30.10 +13 55 42.4    ~2E7qx20.9 GVNEOCPG96
     C24M9M2  C2020 02 14.30751 08 46 27.02 +13 55 35.9    ~2E7qx21.5 GVNEOCPG96
     C24M9M2  C2020 02 14.43882 08 45 13.82 +13 52 48.1    ~2EAqx21.3 GVNEOCPV06
     C24M9M2  C2020 02 14.43926 08 45 13.59 +13 52 47.9    ~2EAqx      VNEOCPV06
     C24M9M2  C2020 02 14.43970 08 45 13.33 +13 52 46.7    ~2EAqx21.3 GVNEOCPV06
     C24M9M2 pC2020 02 14ew95cj/-IAstrometryB_K8I_CV]w7U0SB^Uxu0i;a\*#ENf,wbkL01
     C24M9M2 IC2020 02 14#!obxKEubT+owC%Os54wTylA,C]QF8F.6q.14bp)9nbhgR`!O:s]L01
     C24M9M2 KC2020 02 14n?$b+/TRqk#%VkB'O[u7$bicrY6VMU4'=Pf_xPv#`gEg[bT_Jw#gL01
     C24M9M2 KC2020 02 14p6#=X:DPEeV*)T4Y2tG1b=l$q+)Icp?SNEq,9o\^ZmhGwYQxEm7q204
     C24M9M2 KC2020 02 143w6`qUmyTd+nZB,n5u26Q0p(.;u$,Gl]G(wr8kqlUW:iyG^hvJ$'204
     C24M9M2 KC2020 02 144NdwC_!*,mg.veZ4VRZecuUvm*LqbS,7=)ZW^=R,%(q`'lPlUK!qL01
     C24M9M2 KC2020 02 14!n!'@c[LTR/icm-'y9,'dFwk8N^mS9/.s6(]qTk$=ZgdBH5/yUwEL01
     C24M9M2 KC2020 02 14n%];XwZA_SXgj)u6-8pOVlwt(,t(bqM0PeKbb_*Gmb47k/MS!D(W598
     C24M9M2 KC2020 02 146%RrfNw(8'm=i/#sVp[Da'-5Z.3?#uKvaQvi(X'/%Ey4LjLbh3iu598
     C24M9M2 KC2020 02 14H#][s#_n(5VZ1ybD'LI%^(Q(T9qA\Fj9*%2a'iS7#?j@cKlfQq$3598
     C24M9M2 KC2020 02 15-AXcR$-lb2X#+9G^PJ#uj@F6axae1dL-Z*p2c#X%i7)tPP3[TjVEH21
     C24M9M2 KC2020 02 15e[LTC7fadsAHC-efkC#N-$+hXuxW`!mfUj$uQBHLjkYVEE!iOa0-H21
     C24M9M2 KC2020 02 15lR?AQw\,DH;47?H9km+JI*J$sLSZ6`Li%HtV*T,Ah32a5LR(1W+;H21
     C24M9M2  C2020 02 15.21134 08 37 45.72 +13 35 01.4    ~2F5Mx20.7 GVNEOCPI52
     C24M9M2  C2020 02 15.21332 08 37 44.22 +13 34 58.8    ~2F5Mx20.7 GVNEOCPI52
     C24M9M2  C2020 02 15.21530 08 37 42.71 +13 34 55.8    ~2F5Mx      VNEOCPI52
     C24M9M2  C2020 02 15'/5-oDv3\xal\gGhbiUuQk!]s2nY'Oh]+f[anw:/jPvk8Ztge?h#654
     C24M9M2  C2020 02 15lTqK\G:R^yr?`hg^\v(2LsQ-%,sxNvj]G?HVK,Ux%oflSIB[[n.f654
     C24M9M2  C2020 02 15gEs5CGe4^fP#5`)uo'!dmGrDSR8%Xdredacted;RG-Tfu8R%pAeS654
     C24M9M2 KC2020 02 15qZZLy'sqx=$P0@HiRfvyNP?IBrO8mnkdO%6(-dS+[W5kR]5*J1^xK63
     C24M9M2 KC2020 02 15a#!]OPvCEA-NGx0Tbc9C@NiLeX1iiog*LCgM=yr_`,^0:sSxn[AtK63
     C24M9M2 KC2020 02 15Fy+6hWL'Tm)(1(TpBUV'?p[m#Ya^[^SANAu`G:;_BgQv0,,k%LrYK63
     C24M9M2 KC2020 02 15`3=`IU:j^5eD7h8,M52ofbYLnJQJPJ)6]Q,/Evm47K**W1?C++_W104
     C24M9M2 KC2020 02 15Scb#:2`*J:[0JZa=o#/@-9RrXuy='8N468pclick#RMm67=pxZe!104
     C24M9M2 KC2020 02 15C`b\8[ng41HL_]NPOxS'yZtiK7_JL%%oeB,WWxk2G=K^FU3Db:wv104
     C24M9M2 KC2020 02 165fHrR+QJs.[P.YAtZ9_U+]F[:5!b;'4nffp6_$Kjf_ea?$a8=pCUH36
     C24M9M2 KC2020 02 164C6)XkEts4h_8P9p!]\:IwZM^LEUIhereCmjK[LE.:gH:Yx-OSkfH36
     C24M9M2 KC2020 02 16nnc(A.@1W@.Jd5vF;A.//V#h.0rU80IUlE1eBW`+\$tXJiS3xi!_H36
     C24M9M2 KC2020 02 16ReWnuoXD$JC6$c25#=q'7),Z]?Xyb3^:So.NfrCjpYHYk^\c/cT9734
     C24M9M2 KC2020 02 16o5PhGOQ5hkh7V@hS1^f3q1q-t[K)N@r$/?-:.O+vg+lw[Pksp$E'734
     C24M9M2 KC2020 02 16PR1#_9xWqavX!_.,[Ol(LLcV=6LA[SKh/6EHOC%F^V%9;gFPlXBu734
     C24M9M2 KC2020 02 16x52$0G1\iur5C2IHqYfor'0tn0JdV),explanationNX^cjNlN05734

Station data:
(104) San Marcello Pistoiese  (N44.063037 E10.804200)  Italy. 0.40-m f/5
   reflector.
(204) Schiaparelli Observatory  (N45.867933 E8.770800)  Italy.  Observer L.
   Buzzi. 0.60-m f/4.64 Newtonian + CCD.
(598) Loiano  (N44.259208 E11.334090)  Italy.  Observers A. Buzzoni, R.
   Gualandi, F. Matassoni. Measurers M. Micheli, A. Buzzoni, C. Colombo, P.
   Di Lizia. 1.52-m f/8 Ritchey-Chrétien + CCD.
(654) Table Mountain Observatory, Wrightwood-PHMC  (N34.381822 W117.681590)
   US/California.
(734) Farpoint Observatory, Eskridge  (N38.890107 W96.001400)  US/Kansas.
   Observer G. Hug. 0.69-m reflector + CCD.
(G96) Mt. Lemmon Survey  (N32.442754 W110.788720)  US/Arizona.  Observers T.
   A. Pruyne, B. M. Africano, E. J. Christensen, G. A. Farneth, D. C. Fuls,
   A. R. Gibbs, A. D. Grauer, H. Gröller, J. A. Johnson, R. A. Kowalski, S.
   M. Larson, G. J. Leonard, D. Rankin, R. L. Seaman, F. C. Shelly. 1.5-m
   reflector + 10K CCD.
(H21) Astronomical Research Observatory, Westfield  (N39.483057 W87.968270)
   US/Illinois. 0.76-m f/3.0 astrograph + CCD.
(H36) Sandlot Observatory, Scranton  (N38.797693 W95.706400)  US/Kansas.
   Observer G. Hug. 0.56-m reflector + CCD.
(I52) Steward Observatory, Mt. Lemmon Station  (N32.442547 W110.788920)
   US/Arizona.  Observers T. A. Pruyne, B. M. Africano, E. J. Christensen, G.
   A. Farneth, D. C. Fuls, A. R. Gibbs, A. D. Grauer, H. Gröller, J. A.
   Johnson, R. A. Kowalski, S. M. Larson, G. J. Leonard, D. Rankin, R. L.
   Seaman, F. C. Shelly. 1.0-m reflector + CCD.
(K63) G. Pascoli Observatory, Castelvecchio Pascoli  (N44.082410 E10.462000)
   Italy.
(L01) Višnjan Observatory, Tičan  (N45.290900 E13.749300)  Croatia.
   Observers K. Korlević, E. Pettarin. Measurer E. Pettarin. 1.0-m f/2.9
   reflector + CCD.
(V06) Catalina Sky Survey-Kuiper  (N32.416847 W110.732550)  US/Arizona.
   Observers T. A. Pruyne, B. M. Africano, E. J. Christensen, G. A. Farneth,
   D. C. Fuls, A. R. Gibbs, A. D. Grauer, H. Gröller, J. A. Johnson, R. A.
   Kowalski, S. M. Larson, G. J. Leonard, D. Rankin, R. L. Seaman, F. C.
   Shelly. 1.55-m reflector + CCD.

Orbital elements:  C24M9M2
   Perihelion 2020 Apr 5.233183 TT =  5:35:47 (JD 2458944.733183)
Epoch 2020 Feb 16.0 TT = JDT 2458895.5   Earth MOID: 0.0013   Ve: 0.0339
M 338.71624584                      Ma: 0.0360                AutoNEOCP
n   0.43230506     Peri.  277.39702
a   1.73224440     Node   303.89650
e   0.5713185      Incl.    0.54534
P   2.28/832.73d   H   26.8     G   0.15   q 0.74258111  Q 2.72190770
12 of 38 observations 2020 Feb. 15-16 (8.1 hr); mean residual 0".40
Residuals in arcseconds: 
200214 G96(11.3-  1.9-)   200214 598( 6.5-  1.1-)   200215 K63  .02+  .30+    
200214 G96(11.3-  1.7-)   200214 598( 6.3-  .92-)   200215 K63  .07+  .19-    
200214 G96(11.0-  1.7-)   200214 598( 6.3-  .95-)   200215 104  .39-  .56-    
200214 V06( 9.3-  1.5-)   200215 H21( 4.3-  .56-)   200215 104  .03-  .32+    
200214 V06( 9.1-  1.1-)   200215 H21( 4.5-  .54-)   200215 104  .33+  .14+    
200214 V06( 9.3-  1.7-)   200215 H21( 4.5-  .83-)   200216 H36  .35-  .33-    
200214 L01( 8.5-  .27-)   200215 I52( 4.6-  1.4-)   200216 H36  .26-  .79-    
200214 L01( 8.6-  .83-)   200215 I52( 4.5-  .89-)   200216 H36  .66+  1.2+    
200214 L01( 8.0-  1.1-)   200215 I52( 4.5-  .76-)   200216 734  .26+  .09+    
200214 204( 7.2-  1.2-)   200215 654( 3.7-  .92-)   200216 734  .06-  .35-    
200214 204( 7.2-  .98-)   200215 654( 3.3-  .71-)   200216 734  .00   .02+    
200214 L01( 5.6-  .56-)   200215 654( 2.2-  .57-)   200216 734  .27-  .17+    
200214 L01( 6.7-  1.1-)   200215 K63( 432- 32.9+)   

Ephemerides (geocentric):
Date (UTC) HH   RA              Dec         delta   r     elong  mag " sig PA
---- -- -- --  -------------   -----------  ------ ------ -----  --- ---- ---
2020 02 16 09  08 20 17.423   +12 52 12.09  .03228 1.0175 156.6 20.4 92.7  49
2020 02 16 10  08 19 28.309   +12 50 00.93  .03193 1.0171 156.3 20.4  124  57
2020 02 16 11  08 18 38.129   +12 47 46.28  .03158 1.0168 156.1 20.4  163  62
2020 02 16 12  08 17 46.849   +12 45 28.01  .03123 1.0164 155.8 20.4  210  66
2020 02 16 13  08 16 54.433   +12 43 05.98  .03088 1.0160 155.6 20.4  266  69
2020 02 16 14  08 16 00.844   +12 40 40.06  .03053 1.0157 155.3 20.4  330  71
2020 02 16 15  08 15 06.045   +12 38 10.09  .03019 1.0153 155.1 20.3  403  72
2020 02 16 16  08 14 09.996   +12 35 35.92  .02984 1.0149 154.8 20.3  486  73
2020 02 16 17  08 13 12.654   +12 32 57.37  .02949 1.0146 154.5 20.3  579  74
2020 02 16 18  08 12 13.977   +12 30 14.27  .02915 1.0142 154.2 20.3  683  75
2020 02 16 19  08 11 13.919   +12 27 26.45  .02880 1.0138 154.0 20.3  800  75
2020 02 16 20  08 10 12.434   +12 24 33.70  .02845 1.0135 153.7 20.2  929  76
2020 02 16 21  08 09 09.471   +12 21 35.84  .02811 1.0131 153.4 20.2 1073  76
2020 02 16 22  08 08 04.981   +12 18 32.64  .02777 1.0127 153.1 20.2 1231  76
2020 02 16 23  08 06 58.909   +12 15 23.88  .02742 1.0124 152.7 20.2 1405  77
2020 02 17 00  08 05 51.199   +12 12 09.33  .02708 1.0120 152.4 20.2 1597  77
2020 02 17 01  08 04 41.793   +12 08 48.74  .02674 1.0116 152.1 20.2 1807  77
2020 02 17 02  08 03 30.630   +12 05 21.85  .02640 1.0113 151.8 20.1 2038  77
2020 02 17 03  08 02 17.645   +12 01 48.39  .02606 1.0109 151.4 20.1 2290  77
2020 02 17 04  08 01 02.773   +11 58 08.07  .02572 1.0106 151.1 20.1 2566  77
2020 02 17 05  07 59 45.943   +11 54 20.59  .02538 1.0102 150.7 20.1 2867  77
2020 02 17 06  07 58 27.082   +11 50 25.62  .02504 1.0098 150.4 20.1 3195  77
2020 02 17 07  07 57 06.113   +11 46 22.82  .02470 1.0095 150.0 20.0 3554  77
2020 02 17 08  07 55 42.958   +11 42 11.85  .02437 1.0091 149.6 20.0 3944  77
2020 02 17 09  07 54 17.531   +11 37 52.32  .02403 1.0087 149.2 20.0 4369  77
2020 02 17 10  07 52 49.746   +11 33 23.84  .02370 1.0084 148.8 20.0 4832  77
2020 02 17 11  07 51 19.510   +11 28 45.98  .02337 1.0080 148.4 20.0 5335  77
2020 02 17 12  07 49 46.727   +11 23 58.30  .02303 1.0076 148.0 19.9 5883  77
2020 02 17 13  07 48 11.296   +11 19 00.34  .02270 1.0073 147.5 19.9 6480  77
2020 02 17 14  07 46 33.111   +11 13 51.59  .02237 1.0069 147.1 19.9 7128  77
2020 02 17 15  07 44 52.062   +11 08 31.54  .02204 1.0065 146.6 19.9 7833  77
2020 02 17 16  07 43 08.033   +11 02 59.63  .02172 1.0062 146.2 19.9 8600  77
2020 02 17 17  07 41 20.902   +10 57 15.27  .02139 1.0058 145.7 19.8 9434  77
2020 02 17 18  07 39 30.540   +10 51 17.85  .02106 1.0054 145.2 19.8 172'  77
2020 02 17 19  07 37 36.815   +10 45 06.70  .02074 1.0051 144.7 19.8 189'  77
2020 02 17 20  07 35 39.587   +10 38 41.13  .02042 1.0047 144.1 19.8 207'  77
2020 02 17 21  07 33 38.707   +10 32 00.42  .02010 1.0044 143.6 19.8 226'  77
2020 02 17 22  07 31 34.023   +10 25 03.77  .01978 1.0040 143.0 19.7 247'  77
2020 02 17 23  07 29 25.372   +10 17 50.38  .01946 1.0036 142.4 19.7 270'  77
2020 02 18 00  07 27 12.586   +10 10 19.37  .01915 1.0033 141.8 19.7 296'  77
2020 02 18 01  07 24 55.487   +10 02 29.82  .01883 1.0029 141.2 19.7 323'  77
2020 02 18 02  07 22 33.890   +09 54 20.76  .01852 1.0025 140.6 19.7 353'  77
2020 02 18 03  07 20 07.601   +09 45 51.17  .01821 1.0022 140.0 19.6 385'  76
2020 02 18 04  07 17 36.417   +09 36 59.96  .01791 1.0018 139.3 19.6 421'  76
2020 02 18 05  07 15 00.127   +09 27 46.00  .01760 1.0014 138.6 19.6 459'  76
2020 02 18 06  07 12 18.508   +09 18 08.07  .01730 1.0011 137.9 19.6 501'  76
2020 02 18 07  07 09 31.331   +09 08 04.92  .01700 1.0007 137.1 19.6 547'  76
2020 02 18 08  07 06 38.355   +08 57 35.21  .01670 1.0004 136.3 19.6 596'  76